Location: Musselshell
(46.5176°N, 108.0911°W)
Time: 10:45:12
(UTC+00:00)

EO-88 - Pass Details

Date: 26 June 2022
Orbit: 453 x 462 km, 97.3° (Epoch: 10 August)

Event Time Altitude Azimuth Distance (km) Brightness Sun altitude
Exits shadow 04:12:18 12° 145° (SE) 1,507 ? -8.8°
Maximum altitude 04:15:22 46° 73° (ENE) 639 ? -9.2°
Drops below altitude 10° 04:18:45 10° 359° (N) 1,641 ? -9.5°
Sets 04:20:51 0° 353° (N) 2,523 ? -9.8°
